DELTA 1 DEB, 7203

Orbit data source: Space-Track

DELTA 1 DEB, 7203 is space debris in SSO originally from a launch on Tue, 06 Nov 1973 UTC launched from the Air Force Western Test Range (AFWTR). Debris objects in space refer to the collection of defunct objects orbiting the Earth. Examples of debris include non-operational satellites, rocket bodies, and fragments generated from explosions, collisions, or faulty payload assembly.

Loading next visibility...
Identifier
7203, 1973-086FM
Orbit
SSO
Country
Flag of USUS
Related business
Manufacturer
Unknown
Mission
Spacecraft
Bus & Motor
Unknown
Mass
Unknown
Launch date (UTC)
1973-11-06 (53 years ago)
Launch vehicle
Unknown
Launch site
Air Force Western Test Range (AFWTR)
Object type
Payload
Rocket body
Debris
Shape & HBR
Unknown shape, 0.1 m
Radar Cross Section
Medium (>0.1 m² and <1 m²)

Expand to show TLE details & history
Last TLE update: 15 hours ago

TLE from 15 hours ago
0 DELTA 1 DEB
1  7203U 73086FM  26263.09342095  .00000122  00000-0  18508-3 0  9997
2  7203 102.0081 312.9675 0443260   4.7768 355.7381 13.40907047573259
Epoch: 2026-09-20T02:14Z
TLE epoch observation values (Epoch: 2026-09-20T02:14:31.570Z)
Latitude
-0.00005°
Longitude
-79.65658°
Altitude
777.803 km
Speed
7.628 km/s
True Right ascension
20h 51m 52s
True Declination
0° 00' 00"
Sunlit
Object was in full shadow at epoch
Visualization orbit readout
Latitude
Unknown
Longitude
Unknown
Altitude
Unknown
Speed
Unknown
Apparent Right ascension
Unknown
Apparent Declination
Unknown
Sunlit
N/A
Visualization observer readout
Local Sidereal Time
09:46:53
Azimuth
Unknown
Elevation
Unknown
Doppler factor
Unknown
Orbital elements
Apogee altitude
1,434.964 km
Perigee altitude
771.716 km
Semi-major axis
7,481.477 km
Eccentricity
0.04433
Inclination
102.0081°
RAAN
312.9675°
Arg. of periapsis
4.7768°
True anomaly
355.3386°
Mean anomaly
355.7381°
Eccentric anomaly
355.54063°
Mean motion
3.35399 °/min
Orbital period
107.33 mins
BSTAR
0.00018508
Loading maneuver chart data...
Computing Atmospheric mass density...
Loading historical data...
Loading historical data...
Loading historical data...
Loading historical data...
Loading historical data...
Loading historical data...
Loading historical data...

Documentation

Showing up to 5 results
|